User: anonymous   Login
Location: Unspecified
(0.0000°N, 0.0000°E)
Time: 06:30:46
(UTC+00:00)
Language:

deb DMSP - Orbit

View from above orbital plane
View from above orbital plane
View from above satellite
View from above satellite

Ground track
Ground track

The orbit data is extracted from the following two-line orbital elements,

1 24756U 97012B   19023.63162112  .00012560  00000-0  54435-3 0  9998
2 24756  98.8183 236.7328 0003494 233.1555 126.9357 15.22563044154801
Epoch (UTC): 23 January 2019 15:09:32
Eccentricity: 0.0003494
inclination: 98.8183°
perigee height: 496 km
apogee height: 500 km
right ascension of ascending node: 236.7328°
argument of perigee: 233.1555°
revolutions per day: 15.22563044
mean anomaly at epoch: 126.9357°
orbit number at epoch: 15480

The dashed part of the orbit path shows where the satellite is in the earth's shadow,  

DLR